Regional Weather Roundup
Issued by NWS

Home | Current Version | Previous Version | Graphics & Text | Print | Product List | Glossary On
Versions: 1 2 3 4 5 6 7 8 9 10 11 12 13 14 15 16 17 18 19 20 21 22 23 24 25 26 27 28 29 30 31 32 33 34 35 36 37 38 39 40 41 42 43 44 45 46 47 48 49 50
000
ASUS44 KMEG 210310
RWRTN
TENNESSEE HOURLY STATE WEATHER ROUNDUP
NATIONAL WEATHER SERVICE MEMPHIS TN
900 PM CST SAT DEC 20 2014

TNZ002-004-019-021-049-052-054-088>092-210400-
WEST TENNESSEE

CITY           SKY/WX    TMP DP  RH WIND       PRES   REMARKS
MEMPHIS INTL   FAIR      41  32  70 NE6       30.24S
NWS MEMPHIS      N/A     41 N/A N/A MISG        N/A
JACKSON        CLEAR     34  28  79 CALM      30.26S
DYERSBURG      CLEAR     37  21  52 NE3       30.28S
UNION CITY     CLEAR     30  28  93 CALM      30.26R
PARIS          CLEAR     27  25  93 NE3       30.27R
LEXINGTON      CLEAR     32  27  80 CALM      30.24S
SAVANNAH       CLEAR     32  28  86 CALM      30.25S
$$

TNZ008-025-027-028-033-062-065-066-210400-
NORTH MIDDLE TENNESSEE

CITY           SKY/WX    TMP DP  RH WIND       PRES   REMARKS
NASHVILLE      PTCLDY    34  27  75 CALM      30.27S
CLARKSVILLE    CLEAR     29  26  89 CALM      30.28R
SMYRNA         CLEAR     31  27  85 CALM      30.28S
COOKEVILLE     CLEAR     28  27  93 CALM      30.22F
CROSSVILLE     CLEAR     35  25  66 N5        30.22R WCI  31
$$

TNZ061-075-076-078-094-096-097-210400-
SOUTH MIDDLE TENNESSEE

CITY           SKY/WX    TMP DP  RH WIND       PRES   REMARKS
FAYETTEVILLE   CLEAR     34  27  75 N15G24    30.21F WCI  24
TULLAHOMA      CLEAR     30  25  80 CALM      30.23S
WINCHESTER     CLEAR     28  28 100 CALM      30.23S
MCMINNVILLE    CLEAR     34  28  80 CALM      30.23R
COLUMBIA       CLEAR     30  30 100 CALM      30.24R
SHELBYVILLE    CLEAR     36  28  75 CALM      30.25S
$$

TNZ017-018-042-046-047-210400-
NORTHEAST TENNESSEE

CITY           SKY/WX    TMP DP  RH WIND       PRES   REMARKS
TRI CITIES     CLOUDY    40  38  93 SW3       30.23S
ELIZABETHTON   CLOUDY    37  36  93 W3        30.22S FOG
$$

TNZ012-013-036-069-073-074-210400-
CENTRAL EAST TENNESSEE

CITY           SKY/WX    TMP DP  RH WIND       PRES   REMARKS
KNOXVILLE      CLOUDY    41  35  79 NE5       30.23S
OAK RIDGE      PTCLDY    36  32  85 CALM      30.25F
GATLINBURG     CLOUDY    39  37  93 CALM      30.23S
MORRISTOWN     CLOUDY    39  37  93 CALM      30.23S
$$

TNZ083-085-099-210400-
SOUTHEAST TENNESSEE

CITY           SKY/WX    TMP DP  RH WIND       PRES   REMARKS
CHATTANOOGA    PTCLDY    36  33  89 CALM      30.24S
$$

SKY/WX REPORTED AS FAIR MEANS FEW OR NO CLOUDS BELOW
12 THOUSAND FEET.



USA.gov is the U.S. government's official web portal to all federal, state and local government web resources and services.